User: anonymous   Login
Location: Hamilton
(37.7830°S, 175.2830°E)
Time: 16:54:39
(UTC+13:00)
Language:

Cosmos 1763 Rocket - Orbit

View from above orbital plane
View from above orbital plane
View from above satellite
View from above satellite

Ground track
Ground track

The orbit data is extracted from the following two-line orbital elements,

1 16864U 86052B   19293.16089674 -.00000026  00000-0  26168-6 0  9999
2 16864  74.0266 312.0264 0033496 200.1807 159.8027 14.40558386746039
Epoch (UTC): 20 October 2019 03:51:41
Eccentricity: 0.0033496
inclination: 74.0266°
perigee height: 733 km
apogee height: 780 km
right ascension of ascending node: 312.0264°
argument of perigee: 200.1807°
revolutions per day: 14.40558386
mean anomaly at epoch: 159.8027°
orbit number at epoch: 74603

The dashed part of the orbit path shows where the satellite is in the earth's shadow,  

DLR